Home   Weather   Einbeck   Past weeks

Flag for Germany Past Weather in Einbeck, Lower Saxony, Germany — Yesterday and Last 2 Weeks

Now
23 °F

Clear.


Feels Like: 23 °F
Forecast: 13 / 28 °F
Wind: 2 mph from North

Location: Kassel / Calden

Current Time: Jan 18, 2017 at 7:39:04 pm

Latest Report: Jan 18, 2017 at 7:20 pm


Visibility: 10 mi

Pressure: 30.66 "Hg

Humidity: 86%

Dew Point: 19 °F

Location of EinbeckLocation

Past Weather in Einbeck — Graph

°F

Einbeck Temperature Yesterday

Maximum temperature yesterday: 28 °F (at 12:20 pm)
Minimum temperature yesterday: 14 °F (at 10:50 pm)
Average temperature yesterday: 24 °F

High & Low Weather Summary for the Past Weeks

 TemperatureHumidityPressure
High41 °F (Jan 11, 5:50 pm)100% (Jan 3, 6:50 pm)30.72 "Hg (Jan 3, 6:50 pm)
Low12 °F (Jan 6, 7:20 am)50% (Jan 15, 8:06 pm)28.91 "Hg (Jan 13, 3:20 am)
Average30 °F88%30.09 "Hg
* Reported Jan 3 6:20 pm — Jan 18 6:20 pm, Einbeck, Weather by CustomWeather, © 2017

Note: Actual official high and low records may vary slightly from our data, if they occured in-between our weather recording intervals... More about our weather records

Advertising

Einbeck Weather History for the Previous 24 Hours

Scroll right to see more
 ConditionsComfort  
Time TempWeatherWind HumidityBarometerVisibility
6:20 pm
Wed, Jan 18
23 °FClear.2 mph86%30.66 "Hg10 mi
5:50 pm23 °FClear.6 mph86%30.66 "Hg10 mi
5:20 pm25 °FClear.6 mph80%30.66 "Hg10 mi
4:50 pm25 °FClear.5 mph86%30.66 "Hg10 mi
4:20 pm27 °FPassing clouds.5 mph80%30.66 "HgN/A
3:50 pm27 °FSunny.6 mph80%30.66 "Hg10 mi
3:20 pm27 °FSunny.5 mph80%30.66 "Hg10 mi
2:50 pm27 °FPassing clouds.3 mph80%30.66 "HgN/A
2:20 pm27 °FPartly sunny.3 mph80%30.66 "HgN/A
1:50 pm27 °FSunny.2 mph74%30.66 "Hg10 mi
1:20 pm27 °FSunny.3 mph80%30.66 "Hg10 mi
12:50 pm27 °FPartly sunny.5 mph80%30.66 "HgN/A
12:20 pm25 °FPartly sunny.5 mph80%30.66 "HgN/A
11:50 am25 °FPartly sunny.5 mph80%30.69 "HgN/A
11:20 am25 °FPartly sunny.2 mph80%30.69 "HgN/A
10:50 am23 °FPartly sunny.1 mph93%30.69 "HgN/A
10:20 am21 °FPartly sunny.1 mph100%30.69 "HgN/A
9:50 am19 °FPartly sunny.1 mph100%30.69 "HgN/A
9:20 am19 °FPartly sunny.2 mph100%30.69 "HgN/A
8:50 am16 °FPassing clouds.2 mph100%30.66 "HgN/A
8:20 am16 °FScattered clouds.2 mph100%30.69 "HgN/A
7:50 am19 °FPassing clouds.2 mph100%30.66 "HgN/A
7:20 am21 °FOvercast.1 mph93%30.66 "HgN/A
12:20 am14 °FIce fog.1 mph100%30.66 "Hg0 mi
11:50 pm
Tue, Jan 17
16 °FIce fog.1 mph93%30.66 "Hg0 mi
11:20 pm16 °FIce fog.1 mph100%30.66 "Hg0 mi
10:50 pm14 °FIce fog.1 mph100%30.66 "Hg2 mi
10:20 pm16 °FIce fog.1 mph93%30.66 "Hg3 mi
9:50 pm18 °FIce fog.1 mph100%30.66 "Hg2 mi
9:20 pm18 °FPassing clouds.No wind100%30.66 "Hg4 mi
8:50 pm18 °FPassing clouds.2 mph100%30.63 "Hg4 mi
8:20 pm19 °FPassing clouds.3 mph100%30.63 "Hg6 mi
7:50 pm19 °FPassing clouds.2 mph93%30.63 "Hg5 mi
7:20 pm21 °FPassing clouds.3 mph100%30.63 "HgN/A
Weather by CustomWeather, © 2017

See weather overviewHow to use our weather pages